• In Deutschland
  • Länderverzeichnis
  • Für 7 Tage
  • Wassertemperatur
  • Satellitenkarten
  • Wetterkarte
  • Widgets
  • user-avatar
    Anmelden

    Stündliche Wetter Berat

    Heute, 17 August, Donnerstag

    Zeit Temperatur Niederschläge Wind Luftdruck Luftfeuchtigkeit
    00:00 +25°C° 0,1 mm 2 m/S 744 mmHg 61%
    01:00 +25°C° 0 mm 2 m/S 744 mmHg 62%
    02:00 +24°C° 0 mm 2 m/S 744 mmHg 63%
    03:00 +24°C° 0 mm 2 m/S 744 mmHg 64%
    04:00 +24°C° 0 mm 2 m/S 743 mmHg 65%
    05:00 +25°C° 0 mm 2 m/S 744 mmHg 61%
    06:00 +27°C° 0 mm 2 m/S 744 mmHg 56%
    07:00 +29°C° 0 mm 2 m/S 744 mmHg 49%
    08:00 +31°C° 0 mm 2 m/S 744 mmHg 42%
    09:00 +32°C° 0 mm 2 m/S 744 mmHg 36%
    10:00 +35°C° 0 mm 3 m/S 744 mmHg 29%
    11:00 +36°C° 0 mm 3 m/S 744 mmHg 28%
    12:00 +36°C° 0 mm 4 m/S 744 mmHg 26%
    13:00 +37°C° 0 mm 4 m/S 743 mmHg 25%
    14:00 +36°C° 0 mm 4 m/S 743 mmHg 26%
    15:00 +36°C° 0 mm 4 m/S 743 mmHg 28%
    16:00 +35°C° 0 mm 4 m/S 743 mmHg 30%
    17:00 +33°C° 0 mm 4 m/S 743 mmHg 34%
    18:00 +32°C° 0 mm 4 m/S 743 mmHg 38%
    19:00 +29°C° 0 mm 3 m/S 743 mmHg 42%
    20:00 +28°C° 0 mm 3 m/S 744 mmHg 44%
    21:00 +27°C° 0 mm 3 m/S 744 mmHg 45%
    22:00 +26°C° 0 mm 2 m/S 744 mmHg 47%
    23:00 +25°C° 0 mm 2 m/S 744 mmHg 47%

    Morgen, 18 August, Freitag

    Zeit Temperatur Niederschläge Wind Luftdruck Luftfeuchtigkeit
    00:00 +25°C° 0 mm 2 m/S 744 mmHg 47%
    01:00 +25°C° 0 mm 2 m/S 744 mmHg 47%
    02:00 +24°C° 0 mm 2 m/S 744 mmHg 48%
    03:00 +24°C° 0 mm 2 m/S 744 mmHg 48%
    04:00 +24°C° 0 mm 2 m/S 744 mmHg 49%
    05:00 +25°C° 0 mm 2 m/S 744 mmHg 46%
    06:00 +27°C° 0 mm 2 m/S 745 mmHg 43%
    07:00 +28°C° 0 mm 2 m/S 745 mmHg 40%
    08:00 +30°C° 0 mm 2 m/S 745 mmHg 35%
    09:00 +32°C° 0 mm 2 m/S 745 mmHg 31%
    10:00 +35°C° 0 mm 2 m/S 745 mmHg 26%
    11:00 +36°C° 0 mm 2 m/S 745 mmHg 24%
    12:00 +37°C° 0 mm 3 m/S 745 mmHg 23%
    13:00 +38°C° 0 mm 3 m/S 744 mmHg 21%
    14:00 +37°C° 0 mm 3 m/S 744 mmHg 22%
    15:00 +37°C° 0 mm 4 m/S 744 mmHg 23%
    16:00 +36°C° 0 mm 4 m/S 744 mmHg 24%
    17:00 +34°C° 0 mm 3 m/S 744 mmHg 30%
    18:00 +30°C° 0 mm 2 m/S 744 mmHg 36%
    19:00 +28°C° 0 mm 2 m/S 744 mmHg 41%
    20:00 +27°C° 0 mm 1 m/S 744 mmHg 43%
    21:00 +26°C° 0 mm 1 m/S 744 mmHg 45%
    22:00 +26°C° 0 mm 1 m/S 745 mmHg 46%
    23:00 +25°C° 0 mm 1 m/S 745 mmHg 46%

    übermorgen, 19 August, Samstag

    Zeit Temperatur Niederschläge Wind Luftdruck Luftfeuchtigkeit
    00:00 +25°C° 0 mm 1 m/S 744 mmHg 45%
    01:00 +25°C° 0 mm 1 m/S 744 mmHg 45%
    02:00 +25°C° 0 mm 1 m/S 744 mmHg 45%
    03:00 +24°C° 0 mm 1 m/S 744 mmHg 46%
    04:00 +24°C° 0 mm 1 m/S 744 mmHg 46%
    05:00 +26°C° 0 mm 1 m/S 744 mmHg 43%
    06:00 +27°C° 0 mm 1 m/S 744 mmHg 41%
    07:00 +29°C° 0 mm 1 m/S 744 mmHg 38%
    08:00 +31°C° 0 mm 1 m/S 744 mmHg 34%
    09:00 +33°C° 0 mm 1 m/S 745 mmHg 30%
    10:00 +35°C° 0 mm 1 m/S 745 mmHg 26%
    11:00 +36°C° 0 mm 2 m/S 744 mmHg 25%
    12:00 +37°C° 0 mm 3 m/S 744 mmHg 24%
    13:00 +38°C° 0 mm 4 m/S 744 mmHg 22%
    14:00 +37°C° 0 mm 4 m/S 743 mmHg 24%
    15:00 +36°C° 0 mm 4 m/S 743 mmHg 26%
    16:00 +35°C° 0 mm 4 m/S 743 mmHg 28%
    17:00 +33°C° 0 mm 3 m/S 743 mmHg 34%
    18:00 +30°C° 0 mm 2 m/S 743 mmHg 39%
    19:00 +27°C° 0 mm 1 m/S 744 mmHg 45%
    20:00 +27°C° 0 mm 1 m/S 744 mmHg 47%
    21:00 +26°C° 0 mm 1 m/S 744 mmHg 48%
    22:00 +25°C° 0 mm 1 m/S 744 mmHg 50%
    23:00 +25°C° 0 mm 1 m/S 744 mmHg 50%

    20 August, Sonntag

    Zeit Temperatur Niederschläge Wind Luftdruck Luftfeuchtigkeit
    00:00 +24°C° 0 mm 1 m/S 744 mmHg 50%
    01:00 +24°C° 0 mm 1 m/S 744 mmHg 50%
    02:00 +24°C° 0 mm 1 m/S 743 mmHg 50%
    03:00 +24°C° 0 mm 1 m/S 743 mmHg 50%
    04:00 +23°C° 0 mm 2 m/S 743 mmHg 50%
    05:00 +25°C° 0 mm 2 m/S 743 mmHg 46%
    06:00 +27°C° 0 mm 2 m/S 743 mmHg 42%
    07:00 +29°C° 0 mm 1 m/S 743 mmHg 39%
    08:00 +31°C° 0 mm 2 m/S 743 mmHg 35%
    09:00 +34°C° 0 mm 2 m/S 743 mmHg 31%
    10:00 +36°C° 0 mm 2 m/S 743 mmHg 26%
    11:00 +36°C° 0 mm 3 m/S 743 mmHg 26%
    12:00 +37°C° 0 mm 4 m/S 743 mmHg 25%
    13:00 +37°C° 0 mm 4 m/S 742 mmHg 24%
    14:00 +37°C° 0 mm 4 m/S 742 mmHg 27%
    15:00 +36°C° 0 mm 4 m/S 742 mmHg 30%
    16:00 +35°C° 0 mm 4 m/S 741 mmHg 33%
    17:00 +33°C° 0 mm 3 m/S 742 mmHg 41%
    18:00 +30°C° 0 mm 2 m/S 742 mmHg 48%
    19:00 +27°C° 0 mm 1 m/S 742 mmHg 55%
    20:00 +26°C° 0 mm 1 m/S 742 mmHg 58%
    21:00 +26°C° 0 mm 1 m/S 742 mmHg 61%
    22:00 +25°C° 0 mm 1 m/S 743 mmHg 64%
    23:00 +25°C° 0,1 mm 1 m/S 742 mmHg 65%

    21 August, Montag

    Zeit Temperatur Niederschläge Wind Luftdruck Luftfeuchtigkeit
    00:00 +24°C° 0,1 mm 1 m/S 742 mmHg 65%
    01:00 +24°C° 0,1 mm 1 m/S 742 mmHg 66%
    02:00 +23°C° 0,2 mm 1 m/S 742 mmHg 69%
    03:00 +23°C° 0,2 mm 1 m/S 742 mmHg 71%
    04:00 +22°C° 0,2 mm 1 m/S 742 mmHg 73%
    05:00 +24°C° 0,3 mm 1 m/S 742 mmHg 69%
    06:00 +25°C° 0,3 mm 1 m/S 742 mmHg 65%
    07:00 +26°C° 0,3 mm 2 m/S 743 mmHg 61%
    08:00 +28°C° 0,2 mm 2 m/S 743 mmHg 55%
    09:00 +29°C° 0,2 mm 2 m/S 743 mmHg 49%
    10:00 +31°C° 0,2 mm 3 m/S 743 mmHg 44%
    11:00 +33°C° 0,1 mm 4 m/S 743 mmHg 41%
    12:00 +33°C° 0,1 mm 4 m/S 742 mmHg 39%
    13:00 +34°C° 0,1 mm 5 m/S 742 mmHg 37%
    14:00 +33°C° 0 mm 5 m/S 742 mmHg 37%
    15:00 +33°C° 0 mm 6 m/S 742 mmHg 37%
    16:00 +32°C° 0 mm 6 m/S 742 mmHg 36%
    17:00 +29°C° 0 mm 5 m/S 742 mmHg 42%
    18:00 +27°C° 0 mm 4 m/S 743 mmHg 48%
    19:00 +25°C° 0 mm 4 m/S 743 mmHg 54%
    20:00 +24°C° 0 mm 3 m/S 743 mmHg 56%
    21:00 +22°C° 0 mm 3 m/S 743 mmHg 58%
    22:00 +21°C° 0 mm 3 m/S 744 mmHg 60%
    23:00 +21°C° 0 mm 3 m/S 744 mmHg 58%

    22 August, Dienstag

    Zeit Temperatur Niederschläge Wind Luftdruck Luftfeuchtigkeit
    00:00 +20°C° 0 mm 3 m/S 744 mmHg 57%
    01:00 +19°C° 0 mm 3 m/S 744 mmHg 55%
    02:00 +19°C° 0 mm 3 m/S 744 mmHg 55%
    03:00 +19°C° 0 mm 3 m/S 744 mmHg 56%
    04:00 +18°C° 0 mm 3 m/S 744 mmHg 56%
    05:00 +19°C° 0 mm 3 m/S 744 mmHg 53%
    06:00 +21°C° 0 mm 3 m/S 744 mmHg 50%
    07:00 +22°C° 0 mm 3 m/S 745 mmHg 46%
    08:00 +25°C° 0 mm 3 m/S 745 mmHg 40%
    09:00 +27°C° 0 mm 3 m/S 745 mmHg 33%
    10:00 +29°C° 0 mm 3 m/S 745 mmHg 27%
    11:00 +30°C° 0 mm 3 m/S 745 mmHg 25%
    12:00 +31°C° 0 mm 3 m/S 744 mmHg 22%
    13:00 +33°C° 0 mm 4 m/S 744 mmHg 20%
    14:00 +33°C° 0 mm 4 m/S 744 mmHg 20%
    15:00 +33°C° 0 mm 4 m/S 744 mmHg 21%
    16:00 +33°C° 0 mm 5 m/S 743 mmHg 22%
    17:00 +29°C° 0 mm 4 m/S 743 mmHg 29%
    18:00 +26°C° 0 mm 3 m/S 743 mmHg 37%
    19:00 +24°C° 0 mm 2 m/S 744 mmHg 44%
    20:00 +23°C° 0 mm 2 m/S 744 mmHg 45%
    21:00 +21°C° 0 mm 2 m/S 744 mmHg 45%
    22:00 +21°C° 0 mm 2 m/S 744 mmHg 46%
    23:00 +21°C° 0 mm 2 m/S 744 mmHg 44%
    Mehr zeigen